| time (UTC) | temp F | wind direction | speed MPH | gust MPH | rain 1hr in | rain 24hr in | rain mn in | humidity % | barometer mb |
| 20260904131936 | 49 | 201 | 0.0 | 0.0 | 0.00 | 0.00 | 0.00 | ||
| 20260904130911 | 49 | 316 | 0.0 | 0.0 | 0.00 | 0.00 | 0.00 | ||
| 20260904130358 | 49 | 337 | 0.0 | 0.0 | 0.00 | 0.00 | 0.00 | ||
| 20260904124819 | 49 | 247 | 0.0 | 0.0 | 0.00 | 0.00 | 0.00 | ||
| 20260904124307 | 49 | 99 | 0.0 | 0.0 | 0.00 | 0.00 | 0.00 | ||
| 20260904123754 | 48 | 292 | 0.0 | 0.0 | 0.00 | 0.00 | 0.00 | ||
| 20260904122728 | 48 | 337 | 0.0 | 0.0 | 0.00 | 0.00 | 0.00 | ||
| 20260904115059 | 49 | 337 | 0.0 | 0.0 | 0.00 | 0.00 | 0.00 | ||
| 20260904114545 | 49 | 337 | 0.0 | 0.0 | 0.00 | 0.00 | 0.00 | ||
| 20260904113520 | 49 | 106 | 0.0 | 0.0 | 0.00 | 0.00 | 0.00 | ||
| 20260904110915 | 50 | 43 | 0.0 | 0.0 | 0.00 | 0.00 | 0.00 | ||
| 20260904110403 | 50 | 86 | 0.0 | 0.0 | 0.00 | 0.00 | 0.00 | ||
| 20260904105851 | 51 | 119 | 0.0 | 0.0 | 0.00 | 0.00 | 0.00 | ||
| 20260904104824 | 52 | 56 | 0.0 | 0.0 | 0.00 | 0.00 | 0.00 | ||
| 20260904104312 | 53 | 337 | 0.0 | 0.0 | 0.00 | 0.00 | 0.00 | ||
| 20260904103759 | 53 | 202 | 0.0 | 0.0 | 0.00 | 0.00 | 0.00 | ||
| 20260904101707 | 53 | 337 | 0.0 | 0.0 | 0.00 | 0.00 | 0.00 | ||
| 20260904101154 | 53 | 225 | 0.0 | 0.0 | 0.00 | 0.00 | 0.00 | ||
| 20260904100641 | 54 | 337 | 0.0 | 0.0 | 0.00 | 0.00 | 0.00 | ||
| 20260904095617 | 54 | 180 | 0.0 | 0.0 | 0.00 | 0.00 | 0.00 | ||
| 20260904095104 | 54 | 337 | 0.0 | 0.0 | 0.00 | 0.00 | 0.00 | ||
| 20260904094551 | 54 | 337 | 0.0 | 0.0 | 0.00 | 0.00 | 0.00 | ||
| 20260904093525 | 53 | 112 | 0.0 | 0.0 | 0.00 | 0.00 | 0.00 | ||
| 20260904092501 | 52 | 337 | 0.0 | 0.0 | 0.00 | 0.00 | 0.00 | ||
| 20260904091946 | 52 | 337 | 0.0 | 0.0 | 0.00 | 0.00 | 0.00 | ||
| 20260904091435 | 52 | 315 | 0.0 | 0.0 | 0.00 | 0.00 | 0.00 | ||
| 20260904085343 | 54 | 337 | 0.0 | 0.0 | 0.00 | 0.00 | 0.00 | ||
| 20260904084829 | 54 | 337 | 0.0 | 0.0 | 0.00 | 0.00 | 0.00 | ||
| 20260904084316 | 54 | 337 | 0.0 | 0.0 | 0.00 | 0.00 | 0.00 | ||
| 20260904083804 | 53 | 337 | 0.0 | 0.0 | 0.00 | 0.00 | 0.00 | ||
| 20260904083250 | 53 | 337 | 0.0 | 0.0 | 0.00 | 0.00 | 0.00 | ||
| 20260904082738 | 52 | 337 | 0.0 | 0.0 | 0.00 | 0.00 | 0.00 | ||
| 20260904081200 | 53 | 337 | 0.0 | 0.0 | 0.00 | 0.00 | 0.00 | ||
| 20260904080646 | 53 | 337 | 0.0 | 0.0 | 0.00 | 0.00 | 0.00 | ||
| 20260904074042 | 54 | 337 | 0.0 | 0.0 | 0.00 | 0.00 | 0.00 | ||
| 20260904073529 | 54 | 337 | 0.0 | 0.0 | 0.00 | 0.00 | 0.00 | ||
| 20260904071438 | 54 | 337 | 0.0 | 0.0 | 0.00 | 0.00 | 0.00 | ||
| 20260904065859 | 55 | 135 | 0.0 | 0.0 | 0.00 | 0.00 | 0.00 | ||
| 20260904065346 | 55 | 315 | 0.0 | 0.0 | 0.00 | 0.00 | 0.00 | ||
| 20260904064834 | 56 | 180 | 0.0 | 0.0 | 0.00 | 0.00 | 0.00 | ||
| 20260904063255 | 57 | 337 | 0.0 | 0.0 | 0.00 | 0.00 | 0.00 | ||
| 20260904062230 | 58 | 136 | 0.0 | 0.0 | 0.00 | 0.00 | 0.00 | ||
| 20260904061204 | 57 | 213 | 0.0 | 0.0 | 0.00 | 0.00 | 0.00 | ||
| 20260904060651 | 57 | 337 | 0.0 | 0.0 | 0.00 | 0.00 | 0.00 | ||
| 20260904053021 | 58 | 337 | 0.0 | 0.0 | 0.00 | 0.00 | 0.00 | ||
| 20260904051955 | 58 | 225 | 0.0 | 0.0 | 0.00 | 0.00 | 0.00 | ||
| 20260904051443 | 58 | 337 | 0.0 | 0.0 | 0.00 | 0.00 | 0.00 | ||
| 20260904050417 | 59 | 337 | 0.0 | 0.0 | 0.00 | 0.00 | 0.00 | ||
| 20260904045904 | 59 | 122 | 0.0 | 0.0 | 0.00 | 0.00 | 0.00 | ||
| 20260904044838 | 59 | 337 | 0.0 | 0.0 | 0.00 | 0.00 | 0.00 | ||
| 20260904043813 | 59 | 337 | 0.0 | 0.0 | 0.00 | 0.00 | 0.00 | ||
| 20260904043300 | 60 | 303 | 0.0 | 0.0 | 0.00 | 0.00 | 0.00 | ||
| 20260904042234 | 61 | 337 | 0.0 | 0.0 | 0.00 | 0.00 | 0.00 | ||
| 20260904041210 | 62 | 337 | 0.0 | 0.0 | 0.00 | 0.00 | 0.00 | ||
| 20260904040655 | 61 | 337 | 0.0 | 0.0 | 0.00 | 0.00 | 0.00 | ||
| 20260904035118 | 61 | 108 | 0.0 | 0.0 | 0.00 | 0.00 | 0.00 | ||
| 20260904034052 | 61 | 240 | 0.0 | 0.0 | 0.00 | 0.00 | 0.00 | ||
| 20260904033539 | 61 | 270 | 0.0 | 0.0 | 0.00 | 0.00 | 0.00 | ||
| 20260904033026 | 61 | 337 | 0.0 | 0.0 | 0.00 | 0.00 | 0.00 | ||
| 20260904032000 | 62 | 337 | 0.0 | 0.0 | 0.00 | 0.00 | 0.00 | ||
| 20260904030935 | 63 | 348 | 0.0 | 0.0 | 0.00 | 0.00 | 0.00 | ||
| 20260904030421 | 63 | 93 | 0.0 | 0.0 | 0.00 | 0.00 | 0.00 | ||
| 20260904025357 | 64 | 337 | 0.0 | 0.0 | 0.00 | 0.00 | 0.00 | ||
| 20260904022753 | 67 | 22 | 0.0 | 0.0 | 0.00 | 0.00 | 0.00 | ||
| 20260904022240 | 67 | 337 | 0.0 | 0.0 | 0.00 | 0.00 | 0.00 | ||
| 20260904020701 | 67 | 270 | 0.0 | 0.0 | 0.00 | 0.00 | 0.00 | ||
| 20260904015635 | 69 | 98 | 0.0 | 0.0 | 0.00 | 0.00 | 0.00 | ||
| 20260904015122 | 70 | 337 | 0.0 | 0.0 | 0.00 | 0.00 | 0.00 | ||
| 20260904014056 | 74 | 120 | 0.0 | 0.0 | 0.00 | 0.00 | 0.00 | ||
| 20260904012518 | 80 | 311 | 0.0 | 0.0 | 0.00 | 0.00 | 0.00 | ||
| 20260904011453 | 84 | 292 | 0.0 | 0.0 | 0.00 | 0.00 | 0.00 | ||
| 20260904010939 | 85 | 294 | 0.0 | 0.0 | 0.00 | 0.00 | 0.00 | ||
| 20260904010426 | 85 | 292 | 0.0 | 0.0 | 0.00 | 0.00 | 0.00 | ||
| 20260904004848 | 88 | 293 | 0.0 | 0.0 | 0.00 | 0.00 | 0.00 | ||
| 20260904003822 | 88 | 293 | 0.0 | 0.0 | 0.00 | 0.00 | 0.00 | ||
| 20260904002756 | 90 | 295 | 0.0 | 0.0 | 0.00 | 0.00 | 0.00 | ||
| 20260904002244 | 90 | 296 | 0.0 | 0.0 | 0.00 | 0.00 | 0.00 | ||
| 20260904001219 | 91 | 292 | 0.0 | 0.0 | 0.00 | 0.00 | 0.00 | ||
| 20260904000705 | 91 | 296 | 0.0 | 0.0 | 0.00 | 0.00 | 0.00 | ||
| 20260903235639 | 91 | 294 | 0.0 | 0.0 | 0.00 | 0.00 | 0.00 | ||
| 20260903234101 | 91 | 298 | 0.0 | 0.0 | 0.00 | 0.00 | 0.00 | ||
| 20260903233548 | 91 | 294 | 0.0 | 0.0 | 0.00 | 0.00 | 0.00 | ||
| 20260903233035 | 92 | 293 | 0.0 | 0.0 | 0.00 | 0.00 | 0.00 | ||
| 20260903232522 | 93 | 294 | 0.0 | 0.0 | 0.00 | 0.00 | 0.00 | ||
| 20260903232010 | 93 | 295 | 0.0 | 0.0 | 0.00 | 0.00 | 0.00 | ||
| 20260903231457 | 92 | 296 | 0.0 | 0.0 | 0.00 | 0.00 | 0.00 | ||
| 20260903230944 | 92 | 297 | 0.0 | 0.0 | 0.00 | 0.00 | 0.00 | ||
| 20260903230431 | 93 | 292 | 0.0 | 0.0 | 0.00 | 0.00 | 0.00 | ||
| 20260903225405 | 92 | 300 | 0.0 | 0.0 | 0.00 | 0.00 | 0.00 | ||
| 20260903224852 | 92 | 297 | 0.0 | 0.0 | 0.00 | 0.00 | 0.00 | ||
| 20260903222801 | 91 | 296 | 0.0 | 0.0 | 0.00 | 0.00 | 0.00 | ||
| 20260903222248 | 91 | 292 | 0.0 | 0.0 | 0.00 | 0.00 | 0.00 | ||
| 20260903221223 | 91 | 296 | 0.0 | 0.0 | 0.00 | 0.00 | 0.00 | ||
| 20260903220710 | 91 | 292 | 0.0 | 0.0 | 0.00 | 0.00 | 0.00 | ||
| 20260903220157 | 91 | 294 | 0.0 | 0.0 | 0.00 | 0.00 | 0.00 | ||
| 20260903215131 | 91 | 303 | 0.0 | 0.0 | 0.00 | 0.00 | 0.00 | ||
| 20260903214618 | 91 | 300 | 0.0 | 0.0 | 0.00 | 0.00 | 0.00 | ||
| 20260903214105 | 91 | 299 | 0.0 | 0.0 | 0.00 | 0.00 | 0.00 | ||
| 20260903213553 | 91 | 299 | 0.0 | 0.0 | 0.00 | 0.00 | 0.00 | ||
| 20260903213040 | 91 | 299 | 0.0 | 0.0 | 0.00 | 0.00 | 0.00 | ||
| 20260903212527 | 91 | 294 | 0.0 | 0.0 | 0.00 | 0.00 | 0.00 | ||
| 20260903212014 | 92 | 296 | 0.0 | 0.0 | 0.00 | 0.00 | 0.00 | ||
| 20260903211501 | 90 | 296 | 0.0 | 0.0 | 0.00 | 0.00 | 0.00 | ||
| 20260903210436 | 90 | 295 | 0.0 | 0.0 | 0.00 | 0.00 | 0.00 | ||
| 20260903205923 | 90 | 305 | 0.0 | 0.0 | 0.00 | 0.00 | 0.00 | ||
| 20260903205410 | 90 | 294 | 0.0 | 0.0 | 0.00 | 0.00 | 0.00 | ||
| 20260903204857 | 90 | 297 | 0.0 | 0.0 | 0.00 | 0.00 | 0.00 | ||
| 20260903204344 | 91 | 307 | 0.0 | 0.0 | 0.00 | 0.00 | 0.00 | ||
| 20260903203831 | 90 | 297 | 0.0 | 0.0 | 0.00 | 0.00 | 0.00 | ||
| 20260903203318 | 90 | 295 | 0.0 | 0.0 | 0.00 | 0.00 | 0.00 | ||
| 20260903202806 | 90 | 292 | 0.0 | 0.0 | 0.00 | 0.00 | 0.00 | ||
| 20260903202253 | 89 | 295 | 0.0 | 0.0 | 0.00 | 0.00 | 0.00 | ||
| 20260903201740 | 88 | 305 | 0.0 | 0.0 | 0.00 | 0.00 | 0.00 | ||
| 20260903201228 | 88 | 292 | 0.0 | 0.0 | 0.00 | 0.00 | 0.00 | ||
| 20260903200714 | 88 | 321 | 0.0 | 0.0 | 0.00 | 0.00 | 0.00 | ||
| 20260903200202 | 87 | 292 | 0.0 | 0.0 | 0.00 | 0.00 | 0.00 | ||
| 20260903195649 | 88 | 304 | 0.0 | 0.0 | 0.00 | 0.00 | 0.00 | ||
| 20260903195136 | 87 | 292 | 0.0 | 0.0 | 0.00 | 0.00 | 0.00 | ||
| 20260903194623 | 86 | 250 | 0.0 | 0.0 | 0.00 | 0.00 | 0.00 | ||
| 20260903193044 | 86 | 300 | 0.0 | 0.0 | 0.00 | 0.00 | 0.00 | ||
| 20260903192532 | 86 | 292 | 0.0 | 0.0 | 0.00 | 0.00 | 0.00 | ||
| 20260903192019 | 86 | 295 | 0.0 | 0.0 | 0.00 | 0.00 | 0.00 | ||
| 20260903191506 | 86 | 296 | 0.0 | 0.0 | 0.00 | 0.00 | 0.00 | ||
| 20260903190953 | 86 | 292 | 0.0 | 0.0 | 0.00 | 0.00 | 0.00 | ||
| 20260903190440 | 86 | 292 | 0.0 | 0.0 | 0.00 | 0.00 | 0.00 | ||
| 20260903185928 | 86 | 294 | 0.0 | 0.0 | 0.00 | 0.00 | 0.00 | ||
| 20260903185416 | 86 | 295 | 0.0 | 0.0 | 0.00 | 0.00 | 0.00 | ||
| 20260903184903 | 85 | 298 | 0.0 | 0.0 | 0.00 | 0.00 | 0.00 | ||
| 20260903184350 | 86 | 296 | 0.0 | 0.0 | 0.00 | 0.00 | 0.00 | ||
| 20260903183837 | 86 | 294 | 0.0 | 0.0 | 0.00 | 0.00 | 0.00 | ||
| 20260903183324 | 85 | 306 | 0.0 | 0.0 | 0.00 | 0.00 | 0.00 | ||
| 20260903182258 | 84 | 304 | 0.0 | 0.0 | 0.00 | 0.00 | 0.00 | ||
| 20260903181233 | 84 | 305 | 0.0 | 0.0 | 0.00 | 0.00 | 0.00 | ||
| 20260903180207 | 85 | 298 | 0.0 | 0.0 | 0.00 | 0.00 | 0.00 | ||
| 20260903175655 | 85 | 296 | 0.0 | 0.0 | 0.00 | 0.00 | 0.00 | ||
| 20260903175142 | 85 | 303 | 0.0 | 0.0 | 0.00 | 0.00 | 0.00 | ||
| 20260903174628 | 84 | 315 | 0.0 | 0.0 | 0.00 | 0.00 | 0.00 | ||
| 20260903174115 | 84 | 311 | 0.0 | 0.0 | 0.00 | 0.00 | 0.00 | ||
| 20260903173603 | 84 | 315 | 0.0 | 0.0 | 0.00 | 0.00 | 0.00 | ||
| 20260903173049 | 84 | 318 | 0.0 | 0.0 | 0.00 | 0.00 | 0.00 | ||
| 20260903171511 | 85 | 357 | 0.0 | 0.0 | 0.00 | 0.00 | 0.00 | ||
| 20260903170959 | 85 | 316 | 0.0 | 0.0 | 0.00 | 0.00 | 0.00 | ||
| 20260903170446 | 84 | 75 | 0.0 | 0.0 | 0.00 | 0.00 | 0.00 | ||
| 20260903165420 | 84 | 298 | 0.0 | 0.0 | 0.00 | 0.00 | 0.00 | ||
| 20260903164907 | 84 | 311 | 0.0 | 0.0 | 0.00 | 0.00 | 0.00 | ||
| 20260903164355 | 83 | 135 | 0.0 | 0.0 | 0.00 | 0.00 | 0.00 | ||
| 20260903163842 | 81 | 337 | 0.0 | 0.0 | 0.00 | 0.00 | 0.00 | ||
| 20260903163329 | 79 | 320 | 0.0 | 0.0 | 0.00 | 0.00 | 0.00 | ||
| 20260903162306 | 78 | 323 | 0.0 | 0.0 | 0.00 | 0.00 | 0.00 | ||
| 20260903161752 | 76 | 315 | 0.0 | 0.0 | 0.00 | 0.00 | 0.00 | ||
| 20260903161237 | 76 | 294 | 0.0 | 0.0 | 0.00 | 0.00 | 0.00 | ||
| 20260903160724 | 76 | 315 | 0.0 | 0.0 | 0.00 | 0.00 | 0.00 | ||
| 20260903160211 | 76 | 135 | 0.0 | 0.0 | 0.00 | 0.00 | 0.00 | ||
| 20260903155658 | 77 | 154 | 0.0 | 0.0 | 0.00 | 0.00 | 0.00 | ||
| 20260903155146 | 77 | 337 | 0.0 | 0.0 | 0.00 | 0.00 | 0.00 | ||
| 20260903154633 | 76 | 337 | 0.0 | 0.0 | 0.00 | 0.00 | 0.00 | ||
| 20260903154120 | 75 | 337 | 0.0 | 0.0 | 0.00 | 0.00 | 0.00 | ||
| 20260903153607 | 75 | 337 | 0.0 | 0.0 | 0.00 | 0.00 | 0.00 | ||
| 20260903152028 | 69 | 110 | 0.0 | 0.0 | 0.00 | 0.00 | 0.00 | ||
| 20260903151003 | 65 | 337 | 0.0 | 0.0 | 0.00 | 0.00 | 0.00 | ||
| 20260903145937 | 58 | 321 | 0.0 | 0.0 | 0.00 | 0.00 | 0.00 | ||
| 20260903144359 | 56 | 305 | 0.0 | 0.0 | 0.00 | 0.00 | 0.00 | ||
| 20260903143847 | 55 | 302 | 0.0 | 0.0 | 0.00 | 0.00 | 0.00 | ||
| 20260903142820 | 52 | 337 | 0.0 | 0.0 | 0.00 | 0.00 | 0.00 | ||
| 20260903142307 | 51 | 301 | 0.0 | 0.0 | 0.00 | 0.00 | 0.00 | ||
| 20260903141754 | 51 | 294 | 0.0 | 0.0 | 0.00 | 0.00 | 0.00 | ||
| 20260903141243 | 51 | 312 | 0.0 | 0.0 | 0.00 | 0.00 | 0.00 | ||
| 20260903140729 | 50 | 135 | 0.0 | 0.0 | 0.00 | 0.00 | 0.00 | ||
| 20260903140217 | 49 | 115 | 0.0 | 0.0 | 0.00 | 0.00 | 0.00 | ||
| 20260903135704 | 49 | 115 | 0.0 | 0.0 | 0.00 | 0.00 | 0.00 | ||
| 20260903134638 | 48 | 337 | 0.0 | 0.0 | 0.00 | 0.00 | 0.00 | ||
| 20260903134125 | 48 | 337 | 0.0 | 0.0 | 0.00 | 0.00 | 0.00 | ||
| 20260903133612 | 48 | 225 | 0.0 | 0.0 | 0.00 | 0.00 | 0.00 |